Time,TemperatureF,DewpointF,PressureIn,WindDirection,WindDirectionDegrees,WindSpeedMPH,WindSpeedGustMPH,Humidity,HourlyPrecipIn,Conditions,Clouds,dailyrainin,SolarRadiationWatts/m^2,SoftwareType,DateUTC
2013-09-17 00:00:00,61.9,58.6,29.75,SSW,200,0.0,4.0,89,0.00,RA,FEW,0.00,0.0,WeatherDisplay:10.37,2013-09-16 22:00:00,
2013-09-17 00:30:00,61.0,57.4,29.75,NNE,18,2.0,4.0,88,0.00,CLR,FEW,0.00,0.0,WeatherDisplay:10.37,2013-09-16 22:30:00,
2013-09-17 01:00:00,60.6,56.7,29.74,ESE,115,0.0,3.0,87,0.00,CLR,FEW,0.00,0.0,WeatherDisplay:10.37,2013-09-16 23:00:00,
2013-09-17 01:30:00,60.1,56.2,29.74,ESE,115,0.0,3.0,87,0.00,CLR,FEW,0.00,0.0,WeatherDisplay:10.37,2013-09-16 23:30:00,
2013-09-17 02:00:00,59.3,55.7,29.74,ESE,115,0.0,2.0,88,0.00,CLR,FEW,0.00,0.0,WeatherDisplay:10.37,2013-09-17 00:00:00,
2013-09-17 02:30:00,59.1,55.9,29.73,ESE,115,0.0,1.0,89,0.00,CLR,FEW,0.00,0.0,WeatherDisplay:10.37,2013-09-17 00:30:00,
2013-09-17 03:00:00,59.9,57.0,29.73,NW,318,0.0,7.0,90,0.01,RA,FEW,0.01,0.0,WeatherDisplay:10.37,2013-09-17 01:00:00,
2013-09-17 03:30:00,60.1,57.2,29.72,NW,318,0.0,2.0,90,0.04,RA,FEW,0.04,0.0,WeatherDisplay:10.37,2013-09-17 01:30:00,
2013-09-17 04:00:00,60.3,58.0,29.70,NW,318,0.0,2.0,92,0.03,CLR,FEW,0.04,0.0,WeatherDisplay:10.37,2013-09-17 02:00:00,
2013-09-17 04:30:00,60.6,58.3,29.70,NNW,336,0.0,4.0,92,0.00,CLR,FEW,0.04,0.0,WeatherDisplay:10.37,2013-09-17 02:30:00,
2013-09-17 05:00:00,60.5,58.5,29.69,NNW,336,0.0,1.0,93,0.00,CLR,FEW,0.04,0.0,WeatherDisplay:10.37,2013-09-17 03:00:00,
2013-09-17 05:30:00,60.3,58.2,29.68,NNW,336,0.0,1.0,93,0.00,CLR,FEW,0.04,0.0,WeatherDisplay:10.37,2013-09-17 03:30:00,
2013-09-17 06:00:00,60.4,58.4,29.68,NNW,336,0.0,1.0,93,0.00,CLR,FEW,0.04,0.0,WeatherDisplay:10.37,2013-09-17 04:00:00,
2013-09-17 06:30:00,60.4,58.7,29.68,NNW,336,0.0,2.0,94,0.00,OVC,FEW,0.04,0.0,WeatherDisplay:10.37,2013-09-17 04:30:00,
2013-09-17 07:00:00,60.8,59.0,29.69,SSW,209,0.0,4.0,94,0.00,OVC,FEW,0.04,0.0,WeatherDisplay:10.37,2013-09-17 05:00:00,
2013-09-17 07:30:00,61.6,59.8,29.69,SW,229,0.0,4.0,94,0.00,OVC,FEW,0.04,11.0,WeatherDisplay:10.37,2013-09-17 05:30:00,
2013-09-17 08:00:00,62.2,60.8,29.69,SW,228,0.0,2.0,95,0.00,OVC,FEW,0.04,88.0,WeatherDisplay:10.37,2013-09-17 06:00:00,
2013-09-17 08:30:00,62.6,61.1,29.69,SE,128,0.0,3.0,95,0.00,OVC,FEW,0.04,32.0,WeatherDisplay:10.37,2013-09-17 06:30:00,
2013-09-17 09:00:00,63.0,61.5,29.69,SSE,166,0.0,3.0,95,0.00,OVC,FEW,0.04,47.0,WeatherDisplay:10.37,2013-09-17 07:00:00,
2013-09-17 09:30:00,63.7,62.2,29.69,SE,142,0.0,4.0,95,0.00,OVC,FEW,0.04,135.0,WeatherDisplay:10.37,2013-09-17 07:30:00,
2013-09-17 10:00:00,64.2,62.7,29.70,SW,236,0.0,6.0,95,0.00,OVC,FEW,0.04,77.0,WeatherDisplay:10.37,2013-09-17 08:00:00,
2013-09-17 10:30:00,64.6,63.2,29.69,NW,304,0.0,7.0,95,0.00,OVC,FEW,0.04,69.0,WeatherDisplay:10.37,2013-09-17 08:30:00,
2013-09-17 11:00:00,65.7,63.9,29.69,SSW,202,5.0,10.0,94,0.00,BKN,FEW,0.04,355.0,WeatherDisplay:10.37,2013-09-17 09:00:00,
2013-09-17 11:30:00,66.2,62.5,29.70,SW,232,1.0,13.0,88,0.00,OVC,FEW,0.04,113.0,WeatherDisplay:10.37,2013-09-17 09:30:00,
2013-09-17 12:00:00,66.2,61.9,29.69,West,272,2.0,9.0,86,0.00,OVC,FEW,0.04,116.0,WeatherDisplay:10.37,2013-09-17 10:00:00,
2013-09-17 12:30:00,66.6,61.6,29.69,West,280,3.0,10.0,84,0.01,RA,FEW,0.05,251.0,WeatherDisplay:10.37,2013-09-17 10:30:00,
2013-09-17 13:00:00,66.0,59.6,29.68,WNW,293,3.0,13.0,80,0.01,BKN,FEW,0.05,334.0,WeatherDisplay:10.37,2013-09-17 11:00:00,
2013-09-17 13:30:00,66.2,60.9,29.67,SW,220,2.0,12.0,83,0.02,RA,FEW,0.07,65.0,WeatherDisplay:10.37,2013-09-17 11:30:00,
2013-09-17 14:00:00,64.7,58.7,29.68,NW,314,3.0,15.0,81,0.04,RA,FEW,0.09,44.0,WeatherDisplay:10.37,2013-09-17 12:00:00,
2013-09-17 14:30:00,64.5,59.6,29.69,SW,215,3.0,14.0,84,0.02,OVC,FEW,0.09,97.0,WeatherDisplay:10.37,2013-09-17 12:30:00,
2013-09-17 15:00:00,67.0,60.7,29.67,NW,306,3.0,10.0,80,0.00,CLR,FEW,0.09,640.0,WeatherDisplay:10.37,2013-09-17 13:00:00,
2013-09-17 15:30:00,66.8,59.4,29.68,WNW,294,3.0,15.0,77,0.00,OVC,FEW,0.09,90.0,WeatherDisplay:10.37,2013-09-17 13:30:00,
2013-09-17 16:00:00,65.1,58.4,29.68,SSW,203,1.0,8.0,79,0.00,CLR,FEW,0.09,399.0,WeatherDisplay:10.37,2013-09-17 14:00:00,
2013-09-17 16:30:00,66.1,58.7,29.67,WNW,283,2.0,9.0,77,0.00,CLR,FEW,0.09,302.0,WeatherDisplay:10.37,2013-09-17 14:30:00,
2013-09-17 17:00:00,66.8,57.8,29.68,SW,222,3.0,8.0,73,0.00,FEW,FEW,0.09,149.0,WeatherDisplay:10.37,2013-09-17 15:00:00,
2013-09-17 17:30:00,66.2,58.0,29.68,SSW,210,0.0,8.0,75,0.00,CLR,FEW,0.09,149.0,WeatherDisplay:10.37,2013-09-17 15:30:00,
2013-09-17 18:00:00,66.0,57.5,29.68,SW,225,0.0,6.0,74,0.00,CLR,FEW,0.09,207.0,WeatherDisplay:10.37,2013-09-17 16:00:00,
2013-09-17 18:30:00,65.4,57.6,29.69,SSW,196,1.0,5.0,76,0.00,OVC,FEW,0.09,51.0,WeatherDisplay:10.37,2013-09-17 16:30:00,
2013-09-17 19:00:00,64.1,57.5,29.69,South,184,0.0,5.0,79,0.00,OVC,FEW,0.09,18.0,WeatherDisplay:10.37,2013-09-17 17:00:00,
2013-09-17 19:30:00,62.8,56.9,29.70,ESE,121,0.0,4.0,81,0.00,OVC,FEW,0.09,0.0,WeatherDisplay:10.37,2013-09-17 17:30:00,
2013-09-17 20:00:00,61.8,56.5,29.70,ESE,121,0.0,1.0,83,0.00,CLR,FEW,0.09,0.0,WeatherDisplay:10.37,2013-09-17 18:00:00,
2013-09-17 20:30:00,61.3,57.1,29.72,ESE,121,0.0,0.0,86,0.00,CLR,FEW,0.09,0.0,WeatherDisplay:10.37,2013-09-17 18:30:00,
2013-09-17 21:00:00,61.2,57.3,29.72,ESE,121,0.0,1.0,87,0.00,CLR,FEW,0.09,0.0,WeatherDisplay:10.37,2013-09-17 19:00:00,
2013-09-17 21:30:00,61.5,57.5,29.73,ESE,121,0.0,2.0,87,0.00,CLR,FEW,0.09,0.0,WeatherDisplay:10.37,2013-09-17 19:30:00,
2013-09-17 22:00:00,61.6,57.7,29.73,ESE,121,0.0,1.0,87,0.00,CLR,FEW,0.09,0.0,WeatherDisplay:10.37,2013-09-17 20:00:00,
2013-09-17 22:30:00,61.4,57.8,29.73,ESE,121,0.0,1.0,88,0.00,CLR,FEW,0.09,0.0,WeatherDisplay:10.37,2013-09-17 20:30:00,
2013-09-17 23:00:00,60.6,57.1,29.74,ESE,121,0.0,0.0,88,0.00,CLR,FEW,0.09,0.0,WeatherDisplay:10.37,2013-09-17 21:00:00,
2013-09-17 23:30:00,59.7,56.5,29.74,ESE,121,0.0,0.0,89,0.00,CLR,FEW,0.09,0.0,WeatherDisplay:10.37,2013-09-17 21:30:00,